Location: Red Rock Farm
(35.2100°N, 97.2200°W)
Time: 19:16:44
(UTC-05:00)

Daily predictions for brighter satellites

Satellite Brightness Start Highest point End
(mag) Time Altitude Azimuth Time Altitude Azimuth Time Altitude Azimuth
MSX 4.0 19:37:18 10° SSE 19:43:02 86° WSW 19:48:48 10° NNW
Cosmos 1766 4.3 19:41:32 10° SSE 19:44:49 26° E 19:48:08 10° NNE
SeaSat 1 4.0 19:45:45 10° ENE 19:48:32 15° ESE 19:51:19 10° SE
Cosmos 1844 Rocket 3.4 19:43:45 10° NNW 19:49:15 60° WSW 19:54:45 10° S
ASTRO E2 3.7 19:46:47 10° SW 19:50:27 34° SSE 19:54:07 10° E
Cosmos 2237 Rocket 2.5 19:46:19 10° SSW 19:51:59 74° WNW 19:57:41 10° NNE
NOSS 3-2 (A) 3.7 19:47:16 10° S 19:52:56 47° ESE 19:59:01 10° NE
Cosmos 1953 3.8 19:54:20 10° SE 19:56:48 16° E 19:59:16 10° NE
Cosmos 2233 Rocket 4.1 19:50:42 10° S 19:56:58 87° W 20:03:20 10° N
USA 238 DEB 4.2 19:50:04 10° SW 19:57:04 68° WNW 20:04:06 10° NNE
USA 238 4.2 19:50:09 10° SW 19:57:10 69° WNW 20:04:12 10° NNE
Cosmos 921 Rocket 3.3 19:58:46 10° NNW 20:02:56 68° WSW 20:07:04 10° S
NOAA 12 4.1 20:00:32 10° SSE 20:05:43 68° ENE 20:10:58 10° N
ATLAS 5 CENTAUR R/B 2.5 20:03:48 10° S 20:07:54 31° ESE 20:12:14 10° NE
SL-16 R/B 2.2 20:04:14 10° S 20:09:50 66° ESE 20:15:29 10° NNE
Spot 2 Rocket 3.6 20:09:53 10° SSE 20:14:47 54° ENE 20:19:41 10° N
Abrixas rocket 3.3 20:12:32 10° WNW 20:15:43 42° SW 20:18:51 10° SSE
Cosmos-2242 3.9 20:14:10 10° SSE 20:17:50 27° E 20:21:33 10° NNE
Cosmos 2056 Rocket 3.6 20:12:56 10° N 20:18:19 61° ENE 20:23:39 10° SSE
Cosmos 1076 Rocket 4.0 20:14:27 10° N 20:18:28 37° E 20:22:29 10° SSE
Cosmos 1805 4.0 20:16:25 10° SSE 20:19:51 29° E 20:23:17 10° NNE
Cosmos 1437 2.7 20:16:40 10° N 20:19:57 90° W 20:23:12 10° S
Spot 1 4.2 20:15:49 10° SSE 20:20:41 73° ENE 20:25:19 10° N
Resurs 01 Rocket 1.6 20:17:00 10° SSE 20:21:23 60° ENE 20:25:46 10° N
Meteor 1-22 Rocket 4.1 20:17:58 10° S 20:23:24 85° W 20:28:44 10° N
H-2A R/B 4.0 20:23:12 21° E 20:23:58 23° ENE 20:27:03 10° NNE
Cosmos 1408 Rocket 3.9 20:23:14 10° N 20:27:22 41° E 20:30:56 13° SSE
FREGAT/IRIS 3.2 20:24:31 10° S 20:27:34 61° W 20:30:39 10° NNW
Cosmos 1371 Rocket 4.1 20:22:26 10° NNW 20:27:44 80° WSW 20:33:03 10° SSE
Resurs 1-3 3.7 20:23:29 10° SSE 20:27:45 53° ENE 20:32:01 10° N
Aureole 2 Rocket 3.1 20:24:05 10° SSW 20:28:27 81° WNW 20:32:50 10° NNE
NOSS 3-2 (C) 3.4 20:23:14 10° SSW 20:29:10 71° ESE 20:35:35 10° NE
Okean 3 Rocket 3.8 20:25:12 10° N 20:29:44 74° W 20:34:16 10° S
ALOS 2.7 20:26:20 14° SE 20:29:54 39° ENE 20:34:14 10° N
SJ-6B 3.8 20:26:26 10° S 20:30:13 50° W 20:34:08 10° NNW
Helios 1B rocket 2.5 20:27:58 10° N 20:32:05 83° WNW 20:36:11 10° SSW
CENTAUR R/B 4.3 20:32:40 10° SE 20:32:48 10° SE 20:32:48 10° SE
Cosmos 1758 3.4 20:32:39 10° S 20:36:35 52° E 20:40:34 10° NNE
Cosmos 2278 Rocket 3.1 20:33:35 10° NNW 20:39:00 49° WSW 20:44:25 10° S
Meteor 1-24 Rocket 4.0 20:34:10 10° NNW 20:39:48 70° W 20:45:12 10° S
ASTEX 1 3.7 20:35:54 10° NNE 20:40:30 40° E 20:45:05 10° SSE
Cosmos 2297 3.6 20:35:57 10° NNW 20:41:39 81° ENE 20:46:50 12° SSE
Cosmos 1378 3.4 20:39:13 10° NNW 20:42:56 70° W 20:46:38 10° S
METEOR-M 4.4 20:39:45 10° S 20:45:03 69° WSW 20:50:25 10° NNW
Cosmos 1624 Rocket 4.3 20:40:49 10° NNW 20:46:00 67° WSW 20:51:07 10° S
Cosmos 1544 4.2 20:49:30 30° NE 20:49:30 30° NE 20:51:44 10° NNE
FENGYUN 3A 3.6 20:44:35 14° SSE 20:49:06 62° ENE 20:54:25 10° N
HJ-1C 4.4 20:46:09 10° S 20:49:24 47° W 20:52:40 10° NNW
Meteor 1-29 3.9 20:47:19 10° N 20:50:43 50° WNW 20:54:06 10° SSW
Cosmos 1743 Rocket 4.2 20:49:13 10° N 20:52:51 36° ENE 20:52:51 36° ENE
OAO 3 Rocket 3.1 20:50:22 10° WSW 20:55:10 80° S 20:56:35 46° E
Nadezhda 4 Rocket 4.1 20:49:13 10° N 20:55:20 51° E 20:58:29 28° SE
Cosmos 1603 3.7 20:51:09 10° S 20:56:45 60° ESE 21:02:24 10° NNE
ATLAS CENTAUR R/B 1.9 20:53:36 10° NW 20:57:37 52° WSW 20:59:27 27° S
Cosmos 2369 Rocket 4.0 20:55:55 10° NNE 20:58:21 15° NE 20:58:21 15° NE
Cosmos 1092 Rocket 4.4 20:53:32 10° N 20:59:18 39° ENE 21:00:04 37° E
FengYun 1-2 T 4.4 20:54:48 10° S 21:00:19 74° WSW 21:05:50 10° NNW
Cosmos 1634 Rocket 4.3 21:09:54 42° E 21:09:54 42° E 21:15:19 10° NNE
Atlas Centaur 2 3.4 21:03:35 10° W 21:11:38 50° SSW 21:14:28 35° SE
Helios 1A 4.5 21:08:02 10° SSW 21:11:53 35° W 21:15:45 10° NNW
ERS-1 Rocket 4.3 21:14:27 26° NE 21:14:27 26° NE 21:17:11 10° N
Cosmos 1452 Rocket 3.4 21:09:57 10° NNW 21:15:14 84° ENE 21:16:25 55° SSE
Meteor 1-21 Rocket 4.1 21:10:41 10° N 21:16:17 89° E 21:18:42 35° S
SeaSat 1 3.0 21:21:28 10° NNE 21:26:18 58° WNW 21:31:08 10° SW
OAO 1 Rocket 4.3 21:21:10 10° WSW 21:26:32 81° S 21:26:33 81° SSE
SEDSat Delta rocket 4.0 21:21:00 10° WSW 21:27:44 64° S 21:28:30 59° SE
SL-8 R/B 4.5 21:23:14 10° SW 21:26:24 40° SSW 21:26:24 40° SSW
ASTRO E2 4.2 21:26:53 10° WSW 21:29:15 31° WSW 21:29:15 31° WSW
Cosmos 1953 4.4 21:29:32 10° SW 21:32:59 27° WNW 21:36:25 10° NNW
Cosmos 1420 Rocket 4.4 21:34:57 10° NNW 21:39:07 55° N 21:39:07 55° N
BREEZE-M DEB (TANK) 4.1 21:29:33 10° NW 21:44:40 51° WSW 21:46:05 42° SSW
ATLAS 5 CENTAUR R/B 3.7 21:48:24 10° WSW 21:52:30 28° NW 21:56:54 10° N
Cosmos 2369 Rocket 4.2 22:38:07 10° NNW 22:40:09 23° NNW 22:40:09 23° NNW
CZ-3A R/B 4.5 22:16:15 10° SW 22:57:35 87° NW 22:57:43 86° NNW
